CAPE
nan nan nan nan nan nan nan nan nan nan nan nan nan nan nan 2 nan nan 0 2 2 nan nan nan nan nan nan nan 1 1 0 nan nan nan nan nan nan nan 0 0 0 0 0 1 1 1 1 2 2 2 3 5 10 10 14 17 17 19 21 23 23 26 29 31 31 31 33 35 36 36 34 33 32 32 26 27 27 27 29 29 29 32 34 36 36 41
nan nan nan nan nan nan nan nan nan nan nan nan 0 0 0 nan nan nan nan 2 2 nan nan nan nan nan nan nan nan nan 0 nan nan nan nan nan nan nan nan nan nan nan nan nan nan 0 0 0 0 2 4 8 12 12 14 17 17 19 20 21 21 23 26 28 28 29 30 30 29 29 28 26 23 23 23 22 25 25 29 28 28 32 35 39 39 44
nan nan nan nan nan nan nan nan nan nan nan nan 1 1 0 nan nan nan nan 1 1 0 nan nan nan nan nan nan nan nan nan nan nan nan nan nan nan nan nan nan nan nan nan nan nan nan nan 1 1 3 7 10 13 13 15 17 17 19 19 19 19 22 24 26 26 26 27 25 25 25 24 24 21 21 20 24 28 28 33 32 32 32 35 39 39 45
nan nan 0 nan nan nan nan nan 0 0 0 1 1 1 0 0 1 1 1 0 0 nan nan nan nan nan nan nan nan nan nan nan nan nan nan nan nan nan nan nan nan nan nan nan nan nan 0 2 2 5 9 12 14 14 17 17 17 18 18 19 19 22 24 25 25 23 26 24 24 24 24 24 23 23 24 28 31 31 30 29 29 30 32 35 35 39
nan nan 0 nan nan 0 0 0 1 1 2 1 1 1 0 1 0 0 0 nan nan nan nan nan nan nan nan nan nan nan nan nan nan nan nan nan nan nan nan nan nan nan nan nan nan nan 1 4 4 7 11 13 14 14 15 15 15 15 17 16 16 19 20 20 20 19 19 17 19 19 20 21 21 21 23 24 25 25 26 27 27 27 29 31 31 34
nan nan 0 0 0 1 1 2 2 2 1 1 0 0 0 nan 0 0 0 nan nan nan nan nan nan nan nan nan nan nan nan nan nan nan nan nan nan nan nan nan nan nan nan nan nan 0 2 5 5 9 11 12 13 13 14 14 14 14 14 16 16 16 15 14 14 15 14 14 14 14 15 14 15 15 16 17 18 18 19 22 22 23 28 28 28 32
0 0 0 1 1 1 2 2 2 2 0 0 nan nan nan nan nan nan nan nan nan nan nan nan nan nan nan nan nan nan nan nan nan nan nan nan nan nan nan nan nan nan nan nan nan 1 4 7 7 9 11 13 12 12 14 12 12 13 13 13 13 13 12 12 12 11 10 9 10 10 9 10 11 11 10 12 13 13 15 17 17 21 25 29 29 32
nan 0 nan 0 0 0 0 nan nan nan nan nan nan nan nan nan nan nan nan nan nan nan nan nan nan nan nan nan nan nan nan nan nan nan nan nan nan nan nan nan nan nan nan nan nan 1 4 5 5 7 8 8 8 8 7 7 7 6 4 4 4 3 3 3 3 3 2 3 3 3 5 5 6 6 7 9 10 10 12 14 14 18 24 28 28 34
nan nan nan nan nan nan nan nan nan nan nan nan nan nan nan nan nan nan nan nan nan nan nan nan nan nan nan nan nan nan nan nan nan nan nan nan nan nan nan nan nan nan nan nan nan 0 1 2 2 2 2 2 3 3 2 2 2 1 1 1 1 1 1 1 1 1 1 2 3 3 4 6 8 8 9 9 10 10 11 13 13 17 22 28 28 33
nan nan nan nan nan nan nan nan nan nan nan nan nan nan nan nan nan nan nan nan nan nan nan nan nan nan nan nan nan nan nan nan nan nan nan nan nan nan nan nan nan nan nan nan nan nan nan nan nan nan nan nan nan nan nan nan nan nan nan nan nan nan nan nan nan 0 1 2 3 3 4 7 8 8 10 10 11 11 11 12 12 15 20 27 27 35
nan nan nan nan nan nan nan nan nan nan nan nan nan nan nan nan nan nan nan nan nan nan nan nan nan nan nan nan nan nan nan nan nan nan nan nan nan nan nan nan nan nan nan nan nan nan nan nan nan nan nan nan nan nan nan nan nan nan nan nan nan nan nan nan nan 0 1 2 4 4 7 10 11 11 12 13 12 12 14 14 14 15 20 24 24 31
nan nan nan nan nan nan nan nan nan nan nan nan nan nan nan nan nan nan nan nan nan nan nan nan nan nan nan nan nan nan nan nan nan nan nan nan nan nan nan nan nan nan nan nan nan nan nan nan nan nan nan nan nan nan nan nan nan nan nan nan nan nan nan 0 0 0 2 4 7 7 10 12 13 13 14 15 16 16 17 16 16 17 20 25 25 31
nan nan nan nan nan nan nan nan nan nan nan nan nan nan nan nan nan nan nan nan nan nan nan nan nan nan nan nan nan nan nan nan nan nan nan nan nan nan nan nan nan nan nan nan nan nan nan nan nan nan nan nan nan nan nan nan nan nan nan nan nan nan nan 1 1 2 4 7 9 9 12 13 14 14 15 16 17 17 18 19 19 19 20 24 24 28
nan nan nan nan nan nan nan nan nan nan nan nan nan nan nan nan nan nan nan nan nan nan nan nan nan nan nan nan nan nan nan nan nan nan nan nan nan nan nan nan nan nan nan nan nan nan nan nan nan nan nan nan nan nan nan nan nan nan nan nan nan nan 0 2 2 3 6 8 10 10 12 12 14 14 16 17 19 19 20 19 19 19 21 21 21 24
nan nan nan nan nan nan nan nan nan nan nan nan nan nan nan nan nan nan nan nan nan nan nan nan nan nan nan nan nan nan nan nan nan nan nan nan nan nan nan nan nan nan nan nan nan nan nan nan nan nan nan nan nan nan nan nan nan nan nan nan nan 0 1 3 3 4 6 8 10 10 12 12 14 14 15 16 18 18 18 19 19 19 21 21 21 23
nan nan nan nan nan nan nan nan nan nan nan nan nan nan nan nan nan nan nan nan nan nan nan nan nan nan nan nan nan nan nan nan nan nan nan nan nan nan nan nan nan nan nan nan nan nan nan nan nan nan nan nan nan nan nan nan nan nan nan 0 0 0 1 3 3 5 8 9 10 10 12 12 13 13 15 15 17 17 17 18 18 20 21 22 22 24
nan nan nan nan nan nan nan nan nan nan nan nan nan nan nan nan nan nan nan nan nan nan nan nan nan nan nan nan nan nan nan nan nan nan nan nan nan nan nan nan nan nan nan nan nan nan nan nan nan nan nan nan nan nan nan nan nan nan nan 0 0 1 2 4 4 6 9 11 12 12 12 13 13 13 14 15 15 15 16 18 18 19 22 24 24 24
nan nan nan nan nan nan nan nan nan nan nan nan nan nan nan nan nan nan nan nan nan nan nan nan nan nan nan nan nan nan nan nan nan nan nan nan nan nan nan nan nan nan nan nan nan nan nan nan nan nan nan nan nan nan nan nan nan nan nan 0 0 1 3 5 5 7 8 10 13 13 13 14 14 14 14 16 16 16 17 19 19 21 23 26 26 26
nan nan nan nan nan nan nan nan nan nan nan nan nan nan nan nan nan nan nan nan nan nan nan nan nan nan nan nan nan nan nan nan nan nan nan nan nan nan nan nan nan nan nan nan nan nan nan nan nan nan nan nan nan nan nan nan nan nan 0 1 1 2 4 5 5 7 9 10 11 11 11 13 15 15 17 16 16 16 18 19 19 21 23 25 25 25
nan nan nan nan nan nan nan nan nan nan nan nan nan nan nan nan nan nan nan nan nan nan nan nan nan nan nan nan nan nan nan nan nan nan nan nan nan nan nan nan nan nan nan nan nan nan nan nan nan nan nan nan nan nan nan nan nan nan 0 1 1 2 3 5 5 6 8 8 9 9 10 12 12 12 15 16 16 16 16 18 18 19 21 23 23 24
nan nan nan nan nan nan nan nan nan nan nan nan nan nan nan nan nan nan nan nan nan nan nan nan nan nan nan nan nan nan nan nan nan nan nan nan nan nan nan nan nan nan nan nan nan nan nan nan nan nan nan nan nan nan nan nan nan nan 0 1 1 2 4 5 5 6 7 8 9 9 10 12 12 12 13 15 14 14 16 18 18 19 18 18 18 21
nan nan nan nan nan nan nan nan nan nan nan nan nan nan nan nan nan nan nan nan nan nan nan nan nan nan nan nan nan nan nan nan nan nan nan nan nan nan nan nan nan nan nan nan nan nan nan nan nan nan nan nan nan nan nan nan nan nan 0 1 1 2 3 4 4 6 7 9 9 9 10 10 11 11 12 12 13 13 14 17 17 19 18 19 19 20
nan nan nan nan nan nan nan nan nan nan nan nan nan nan nan nan nan nan nan nan nan nan nan nan nan nan nan nan nan nan nan nan nan nan nan nan nan nan nan nan nan nan nan nan nan nan nan nan nan nan nan nan nan nan nan nan nan nan 0 1 1 1 2 3 3 5 7 9 10 10 10 11 11 11 12 12 13 13 13 18 18 19 20 20 20 22
nan nan nan nan nan nan nan nan nan nan nan nan nan nan nan nan nan nan nan nan nan nan nan nan nan nan nan nan nan nan nan nan nan nan nan nan nan nan nan nan nan nan nan nan nan nan nan nan nan nan nan nan nan nan nan nan nan nan nan 0 0 1 2 3 3 5 7 9 10 10 10 12 12 12 11 12 13 13 14 17 17 19 18 19 19 21
nan nan nan nan nan nan nan nan nan nan nan nan nan nan nan nan nan nan nan nan nan nan nan nan nan nan nan nan nan nan nan nan nan nan nan nan nan nan nan nan nan nan nan nan nan nan nan nan nan nan nan nan nan nan nan nan nan nan nan 0 0 1 2 3 3 4 6 7 8 8 10 11 12 12 12 12 13 13 14 17 17 17 17 18 18 19
nan nan nan nan nan nan nan nan nan nan nan nan nan nan nan nan nan nan nan nan nan nan nan nan nan nan nan nan nan nan nan nan nan nan nan nan nan nan nan nan nan nan nan nan nan nan nan nan nan nan nan nan nan nan nan nan nan nan nan 0 0 1 1 2 2 3 5 6 7 7 8 9 10 10 11 12 13 13 13 17 17 18 17 18 18 18
nan nan 3 8 8 11 14 12 13 13 22 nan nan nan nan nan nan nan nan nan nan nan nan nan nan nan nan nan nan nan nan nan nan nan nan nan nan nan nan nan nan nan nan nan nan nan nan nan nan nan nan nan nan nan nan nan nan nan nan nan nan 0 0 1 1 2 3 5 6 6 7 8 9 9 11 11 12 12 14 15 15 17 16 14 14 17
nan nan nan 0 0 1 3 4 7 7 9 16 18 18 nan nan nan nan nan nan nan nan nan nan nan nan nan nan nan nan nan nan nan nan nan nan nan nan nan nan nan nan nan nan nan nan nan nan nan nan nan nan nan nan nan nan nan nan nan nan nan nan 0 0 0 1 2 3 5 5 5 7 8 8 10 11 11 11 11 13 13 16 17 12 12 1
nan nan nan nan nan nan nan nan nan nan 0 1 7 7 nan nan nan nan nan nan nan nan nan nan nan nan nan nan nan nan nan nan nan nan nan nan nan nan nan nan nan nan nan nan nan nan nan nan nan nan nan nan nan nan nan nan nan nan nan nan nan nan nan 0 0 0 1 2 4 4 5 6 7 7 8 9 10 10 11 12 12 14 12 5 5 nan
nan nan nan nan nan nan nan nan nan nan nan 0 1 1 nan nan nan nan nan nan nan nan nan nan nan nan nan nan nan nan nan nan nan nan nan nan nan nan nan nan nan nan nan nan nan nan nan nan nan nan nan nan nan nan nan nan nan nan nan nan nan nan nan nan nan 0 0 2 3 3 4 5 5 5 6 6 8 8 9 10 10 9 3 0 0 nan
nan nan nan nan nan nan nan nan nan nan nan nan nan nan nan nan nan nan nan nan nan nan nan nan nan nan nan nan nan nan nan nan nan nan nan nan nan nan nan nan nan nan nan nan nan nan nan nan nan nan nan nan nan nan nan nan nan nan nan nan nan nan nan nan nan nan 0 1 1 1 2 3 4 4 4 5 6 6 8 10 10 7 nan nan nan nan
nan nan nan nan nan nan nan nan nan nan nan nan nan nan nan nan nan nan nan nan nan nan nan nan nan nan nan nan nan nan nan nan nan nan nan nan nan nan nan nan nan nan nan 0 0 nan nan nan nan nan nan nan nan nan nan nan nan nan nan nan nan nan nan nan nan nan nan nan 0 0 1 1 1 1 2 3 5 5 8 8 8 8 nan nan nan 0
nan nan nan nan nan nan nan nan nan nan nan nan nan nan nan nan nan nan nan nan nan nan nan nan nan nan nan nan nan nan nan nan nan nan nan nan nan nan nan nan nan nan nan nan nan 0 nan nan nan nan nan nan nan nan nan nan nan nan nan nan nan nan nan nan nan nan nan nan nan nan 0 0 1 1 2 3 5 5 7 9 9 11 11 0 0 1
nan nan nan nan nan nan nan nan nan nan nan nan nan nan nan nan nan nan nan nan nan nan nan nan nan nan nan nan nan nan nan nan nan nan 0 nan nan nan nan nan nan nan nan nan nan nan nan nan nan nan nan nan nan nan nan nan nan nan nan nan nan nan nan nan nan nan nan nan nan nan nan nan nan nan nan 1 3 3 6 10 10 14 19 11 11 6
nan nan nan nan nan nan nan nan nan nan nan nan nan nan nan nan nan nan nan nan nan nan nan nan nan nan nan nan nan nan nan nan nan nan 3 nan nan nan nan nan nan nan nan nan nan nan nan nan nan nan nan nan nan nan nan nan nan nan nan nan nan nan nan nan nan nan nan nan nan nan nan nan nan nan nan nan 3 3 8 13 13 17 20 24 24 16
nan nan nan nan nan nan nan nan nan nan nan nan nan nan nan nan nan nan nan nan nan nan nan nan nan nan nan nan nan nan nan nan nan nan 4 0 nan nan nan nan nan 0 nan nan nan nan nan nan nan 0 0 nan nan nan nan nan nan nan nan nan nan nan nan nan nan nan nan nan nan nan nan nan nan nan nan 1 7 7 12 14 14 17 17 19 19 17
nan nan nan nan nan nan nan nan nan nan nan nan nan nan nan nan nan nan nan nan nan nan nan nan nan nan nan nan nan nan nan nan nan nan 0 nan nan nan 0 0 0 1 0 nan nan nan nan nan nan nan nan nan nan nan nan nan nan nan nan nan nan nan nan nan nan nan nan nan nan nan nan nan nan nan nan 3 4 4 9 13 13 12 14 15 15 17
nan nan nan nan nan nan nan nan nan nan nan nan nan nan nan nan nan nan nan nan nan nan nan nan nan nan nan nan nan nan nan nan nan nan nan nan nan nan nan 0 0 1 1 nan nan nan nan nan nan nan nan nan nan nan nan nan nan nan nan nan nan nan nan nan nan nan nan nan nan nan nan nan nan nan nan nan nan nan nan nan nan 0 7 8 8 15
nan nan nan nan nan nan nan nan nan nan nan nan nan nan nan nan nan nan nan nan nan nan nan nan nan nan nan nan nan nan nan nan nan nan nan nan nan nan nan nan nan nan 0 nan nan nan nan nan nan nan nan nan nan nan nan nan nan nan nan nan nan nan nan nan nan nan nan nan nan nan nan nan nan nan nan nan nan nan nan nan nan nan nan nan nan 3
nan nan nan nan nan nan nan nan nan nan nan nan nan nan nan nan nan nan nan nan nan nan nan nan nan nan nan nan nan nan nan nan 0 0 nan nan nan nan nan nan nan nan nan nan nan nan nan nan nan nan nan nan nan nan nan nan nan nan 1 nan nan nan nan nan nan nan nan nan nan nan nan nan nan nan nan nan nan nan nan nan nan nan nan nan nan nan
nan nan nan nan nan nan nan nan nan nan nan nan nan nan nan nan nan nan nan nan nan nan nan nan nan nan nan nan nan nan nan nan nan nan nan nan nan nan nan nan nan nan nan nan nan nan nan nan nan nan nan nan nan nan nan nan nan 3 5 nan nan nan nan 0 0 nan nan nan nan nan 0 nan 1 1 0 0 nan nan nan nan nan nan nan nan nan nan
nan nan nan nan nan nan nan nan nan nan nan nan nan nan nan nan nan nan nan nan nan nan nan nan nan nan nan nan nan nan nan nan nan nan nan nan nan nan nan nan nan nan nan nan nan nan nan nan nan nan nan nan nan nan nan nan nan 1 2 0 0 nan 1 0 0 nan nan nan nan nan 2 0 nan nan 0 nan nan nan nan nan nan nan nan nan nan nan
nan nan nan nan nan nan nan nan nan nan nan nan nan nan nan nan nan nan nan nan nan nan nan nan nan nan nan nan nan nan nan nan nan nan nan nan nan nan nan nan nan nan nan nan nan nan nan 0 0 nan nan nan nan nan nan nan nan nan 0 2 2 1 nan nan nan nan nan nan nan nan nan nan nan nan nan nan nan nan nan nan nan 3 1 nan nan nan
nan nan nan nan nan nan nan nan nan nan nan nan nan nan nan nan nan nan nan nan nan nan nan nan nan nan nan nan nan nan nan nan nan nan nan nan nan nan nan nan nan nan nan nan nan nan nan nan nan nan nan nan nan nan nan nan nan nan nan 0 0 0 nan nan nan nan nan nan nan nan nan nan nan nan nan nan nan nan nan nan nan nan nan nan nan nan
nan nan nan nan nan nan nan nan nan nan nan nan nan nan nan nan nan nan nan nan nan nan nan nan nan nan nan nan nan nan nan nan nan nan nan nan nan nan nan nan nan nan nan nan nan nan nan nan nan nan nan nan nan nan nan nan nan nan 0 1 1 1 0 0 0 nan nan nan nan nan nan nan nan nan nan nan nan nan nan nan nan nan nan nan nan nan
nan nan nan nan nan nan nan nan nan nan nan nan nan nan nan nan nan nan nan nan nan nan nan nan nan nan nan nan nan nan nan nan nan nan nan nan nan nan nan nan nan nan nan nan nan nan nan nan nan nan nan nan 0 0 nan nan nan nan nan 1 1 0 0 0 0 0 nan nan nan nan nan nan nan nan nan nan nan nan nan nan nan nan nan nan nan nan
nan nan nan nan nan nan nan nan nan nan nan nan nan nan nan nan nan nan nan nan nan nan nan nan nan nan nan nan nan nan nan nan nan nan nan nan nan nan nan nan nan nan nan nan nan nan nan nan nan nan nan nan nan nan nan nan nan nan nan nan nan nan nan nan nan nan nan nan nan nan nan nan nan nan nan nan nan nan nan nan nan nan nan nan nan nan
nan nan nan nan nan nan nan nan nan nan nan nan nan nan nan nan nan nan nan nan nan nan 0 nan nan nan nan nan nan nan nan nan nan nan nan nan nan nan nan nan nan nan nan nan nan nan nan nan nan nan nan nan nan nan nan nan nan nan nan nan nan nan nan nan nan nan nan nan nan nan nan nan nan nan nan nan nan nan nan nan nan nan nan nan nan nan
nan nan nan nan nan nan nan nan nan nan nan nan nan nan nan nan 8 8 nan nan nan nan nan nan nan nan nan nan nan nan nan nan nan nan nan nan nan nan nan nan nan nan nan nan nan nan nan nan nan nan nan nan nan nan nan nan nan nan nan nan nan nan nan nan nan nan nan nan nan nan nan nan nan nan nan nan nan nan nan nan nan nan nan nan nan nan
nan nan nan nan nan nan nan nan nan nan nan nan nan nan nan nan nan nan nan nan nan nan nan nan nan nan nan nan nan nan nan nan nan nan nan nan nan nan nan nan nan nan nan nan nan nan nan 0 0 2 9 2 nan nan nan nan nan nan nan nan nan nan nan nan nan nan nan nan nan nan nan nan 0 0 nan nan 0 0 nan nan nan nan nan nan nan nan
nan nan nan nan nan nan nan nan nan nan nan nan nan nan nan nan nan nan nan nan nan nan nan nan nan nan nan nan nan nan nan nan nan nan nan nan nan nan nan nan nan nan nan nan nan nan nan nan nan nan 3 17 4 4 nan nan nan nan nan nan nan nan nan nan nan nan nan nan nan nan nan nan 0 0 nan nan nan nan 0 nan nan nan nan nan nan nan
CIN
nan nan nan nan nan nan nan nan nan nan nan nan nan nan nan -0 nan nan -1 -1 -1 nan nan nan nan nan nan nan -0 -0 -0 nan nan nan nan nan nan nan -0 -0 -0 -0 -0 -0 -0 -0 -0 -0 -0 -0 -0 -0 -0 -0 -0 -0 -0 -0 -0 -0 -0 -0 -0 -0 -0 -0 -0 -0 -0 -0 -0 -0 -0 -0 -0 -0 -0 -0 -0 -0 -0 -0 -0 -0 -0 -0
nan nan nan nan nan nan nan nan nan nan nan nan -0 -0 -0 nan nan nan nan -2 -2 nan nan nan nan nan nan nan nan nan -0 nan nan nan nan nan nan nan nan nan nan nan nan nan nan -0 -0 -0 -0 -0 -0 -0 -0 -0 -0 -0 -0 -0 -0 -0 -0 -0 -0 -0 -0 -0 -0 -0 -0 -0 -0 -0 -0 -0 -0 -0 -0 -0 -0 -0 -0 -0 -0 -0 -0 -0
nan nan nan nan nan nan nan nan nan nan nan nan -0 -0 -0 nan nan nan nan -1 -1 -2 nan nan nan nan nan nan nan nan nan nan nan nan nan nan nan nan nan nan nan nan nan nan nan nan nan -0 -0 -0 -0 -0 -0 -0 -0 -0 -0 -0 -0 -0 -0 -0 -0 -0 -0 -0 -0 -0 -0 -0 -0 -0 -0 -0 -0 -0 -0 -0 -0 -0 -0 -0 -0 -0 -0 -0
nan nan -0 nan nan nan nan nan -0 -0 -0 -0 -0 -0 -0 -0 -0 -0 -0 -1 -1 nan nan nan nan nan nan nan nan nan nan nan nan nan nan nan nan nan nan nan nan nan nan nan nan nan -0 -0 -0 -0 -0 -0 -0 -0 -0 -0 -0 -0 -0 -0 -0 -0 -0 -0 -0 -0 -0 -0 -0 -0 -0 -0 -0 -0 -0 -0 -0 -0 -0 -0 -0 -0 -0 -0 -0 -0
nan nan -0 nan nan -0 -0 -0 -0 -0 -0 -0 -0 -0 -0 -0 -0 -0 -0 nan nan nan nan nan nan nan nan nan nan nan nan nan nan nan nan nan nan nan nan nan nan nan nan nan nan nan -0 -0 -0 -0 -0 -0 -0 -0 -0 -0 -0 -0 -0 -0 -0 -0 -0 -0 -0 -0 -0 -0 -0 -0 -0 -0 -0 -0 -0 -0 -0 -0 -0 -0 -0 -0 -0 -0 -0 -0
nan nan -0 -0 -0 -0 -0 -0 -0 -0 -0 -0 -0 -0 -0 nan -0 -0 -0 nan nan nan nan nan nan nan nan nan nan nan nan nan nan nan nan nan nan nan nan nan nan nan nan nan nan -0 -0 -0 -0 -0 -0 -0 -0 -0 -0 -0 -0 -0 -0 -0 -0 -0 -0 -0 -0 -0 -0 -0 -0 -0 -0 -0 -0 -0 -0 -0 -0 -0 -0 -0 -0 -0 -0 -0 -0 -0
-0 -0 -0 -0 -0 -0 -0 -0 -0 -0 -0 -0 nan nan nan nan nan nan nan nan nan nan nan nan nan nan nan nan nan nan nan nan nan nan nan nan nan nan nan nan nan nan nan nan nan -0 -0 -0 -0 -0 -0 -0 -0 -0 -0 -0 -0 -0 -0 -0 -0 -0 -0 -0 -0 -0 -0 -0 -0 -0 -0 -0 -0 -0 -0 -0 -0 -0 -0 -0 -0 -0 -0 -0 -0 -0
nan -0 nan -0 -0 -0 -0 nan nan nan nan nan nan nan nan nan nan nan nan nan nan nan nan nan nan nan nan nan nan nan nan nan nan nan nan nan nan nan nan nan nan nan nan nan nan -0 -0 -0 -0 -0 -0 -0 -0 -0 -0 -0 -0 -0 -0 -0 -0 -0 -0 -0 -0 -0 -0 -0 -0 -0 -0 -0 -0 -0 -0 -0 -0 -0 -0 -0 -0 -0 -0 -0 -0 -0
nan nan nan nan nan nan nan nan nan nan nan nan nan nan nan nan nan nan nan nan nan nan nan nan nan nan nan nan nan nan nan nan nan nan nan nan nan nan nan nan nan nan nan nan nan -0 -0 -0 -0 -0 -0 -0 -0 -0 -0 -0 -0 -0 -0 -0 -0 -0 -0 -0 -0 -0 -0 -0 -0 -0 -0 -0 -0 -0 -0 -0 -0 -0 -0 -0 -0 -0 -0 -0 -0 -0
nan nan nan nan nan nan nan nan nan nan nan nan nan nan nan nan nan nan nan nan nan nan nan nan nan nan nan nan nan nan nan nan nan nan nan nan nan nan nan nan nan nan nan nan nan nan nan nan nan nan nan nan nan nan nan nan nan nan nan nan nan nan nan nan nan -0 -0 -0 -0 -0 -0 -0 -0 -0 -0 -0 -0 -0 -0 -0 -0 -0 -0 -0 -0 -0
nan nan nan nan nan nan nan nan nan nan nan nan nan nan nan nan nan nan nan nan nan nan nan nan nan nan nan nan nan nan nan nan nan nan nan nan nan nan nan nan nan nan nan nan nan nan nan nan nan nan nan nan nan nan nan nan nan nan nan nan nan nan nan nan nan -0 -0 -0 -0 -0 -0 -0 -0 -0 -0 -0 -0 -0 -0 -0 -0 -0 -0 -0 -0 -0
nan nan nan nan nan nan nan nan nan nan nan nan nan nan nan nan nan nan nan nan nan nan nan nan nan nan nan nan nan nan nan nan nan nan nan nan nan nan nan nan nan nan nan nan nan nan nan nan nan nan nan nan nan nan nan nan nan nan nan nan nan nan nan -0 -0 -0 -0 -0 -0 -0 -0 -0 -0 -0 -0 -0 -0 -0 -0 -0 -0 -0 -0 -0 -0 -0
nan nan nan nan nan nan nan nan nan nan nan nan nan nan nan nan nan nan nan nan nan nan nan nan nan nan nan nan nan nan nan nan nan nan nan nan nan nan nan nan nan nan nan nan nan nan nan nan nan nan nan nan nan nan nan nan nan nan nan nan nan nan nan -0 -0 -0 -0 -0 -0 -0 -0 -0 -0 -0 -0 -0 -0 -0 -0 -0 -0 -0 -0 -0 -0 -0
nan nan nan nan nan nan nan nan nan nan nan nan nan nan nan nan nan nan nan nan nan nan nan nan nan nan nan nan nan nan nan nan nan nan nan nan nan nan nan nan nan nan nan nan nan nan nan nan nan nan nan nan nan nan nan nan nan nan nan nan nan nan -0 -0 -0 -0 -0 -0 -0 -0 -0 -0 -0 -0 -0 -0 -0 -0 -0 -0 -0 -0 -0 -0 -0 -0
nan nan nan nan nan nan nan nan nan nan nan nan nan nan nan nan nan nan nan nan nan nan nan nan nan nan nan nan nan nan nan nan nan nan nan nan nan nan nan nan nan nan nan nan nan nan nan nan nan nan nan nan nan nan nan nan nan nan nan nan nan -0 -0 -0 -0 -0 -0 -0 -0 -0 -0 -0 -0 -0 -0 -0 -0 -0 -0 -0 -0 -0 -0 -0 -0 -0
nan nan nan nan nan nan nan nan nan nan nan nan nan nan nan nan nan nan nan nan nan nan nan nan nan nan nan nan nan nan nan nan nan nan nan nan nan nan nan nan nan nan nan nan nan nan nan nan nan nan nan nan nan nan nan nan nan nan nan -0 -0 -0 -0 -0 -0 -0 -0 -0 -0 -0 -0 -0 -0 -0 -0 -0 -0 -0 -0 -0 -0 -0 -0 -0 -0 -0
nan nan nan nan nan nan nan nan nan nan nan nan nan nan nan nan nan nan nan nan nan nan nan nan nan nan nan nan nan nan nan nan nan nan nan nan nan nan nan nan nan nan nan nan nan nan nan nan nan nan nan nan nan nan nan nan nan nan nan -0 -0 -0 -0 -0 -0 -0 -0 -0 -0 -0 -0 -0 -0 -0 -0 -0 -0 -0 -0 -0 -0 -0 -0 -0 -0 -0
nan nan nan nan nan nan nan nan nan nan nan nan nan nan nan nan nan nan nan nan nan nan nan nan nan nan nan nan nan nan nan nan nan nan nan nan nan nan nan nan nan nan nan nan nan nan nan nan nan nan nan nan nan nan nan nan nan nan nan -0 -0 -0 -0 -0 -0 -0 -0 -0 -0 -0 -0 -0 -0 -0 -0 -0 -0 -0 -0 -0 -0 -0 -0 -0 -0 -0
nan nan nan nan nan nan nan nan nan nan nan nan nan nan nan nan nan nan nan nan nan nan nan nan nan nan nan nan nan nan nan nan nan nan nan nan nan nan nan nan nan nan nan nan nan nan nan nan nan nan nan nan nan nan nan nan nan nan -0 -0 -0 -0 -0 -0 -0 -0 -0 -0 -0 -0 -0 -0 -0 -0 -0 -0 -0 -0 -0 -0 -0 -0 -0 -0 -0 -0
nan nan nan nan nan nan nan nan nan nan nan nan nan nan nan nan nan nan nan nan nan nan nan nan nan nan nan nan nan nan nan nan nan nan nan nan nan nan nan nan nan nan nan nan nan nan nan nan nan nan nan nan nan nan nan nan nan nan -0 -0 -0 -0 -0 -0 -0 -0 -0 -0 -0 -0 -0 -0 -0 -0 -0 -0 -0 -0 -0 -0 -0 -0 -0 -0 -0 -0
nan nan nan nan nan nan nan nan nan nan nan nan nan nan nan nan nan nan nan nan nan nan nan nan nan nan nan nan nan nan nan nan nan nan nan nan nan nan nan nan nan nan nan nan nan nan nan nan nan nan nan nan nan nan nan nan nan nan -0 -0 -0 -0 -0 -0 -0 -0 -0 -0 -0 -0 -0 -0 -0 -0 -0 -0 -0 -0 -0 -0 -0 -0 -0 -0 -0 -0
nan nan nan nan nan nan nan nan nan nan nan nan nan nan nan nan nan nan nan nan nan nan nan nan nan nan nan nan nan nan nan nan nan nan nan nan nan nan nan nan nan nan nan nan nan nan nan nan nan nan nan nan nan nan nan nan nan nan -0 -0 -0 -0 -0 -0 -0 -0 -0 -0 -0 -0 -0 -0 -0 -0 -0 -0 -0 -0 -0 -0 -0 -0 -0 -0 -0 -0
nan nan nan nan nan nan nan nan nan nan nan nan nan nan nan nan nan nan nan nan nan nan nan nan nan nan nan nan nan nan nan nan nan nan nan nan nan nan nan nan nan nan nan nan nan nan nan nan nan nan nan nan nan nan nan nan nan nan -0 -0 -0 -0 -0 -0 -0 -0 -0 -0 -0 -0 -0 -0 -0 -0 -0 -0 -0 -0 -0 -0 -0 -0 -0 -0 -0 -0
nan nan nan nan nan nan nan nan nan nan nan nan nan nan nan nan nan nan nan nan nan nan nan nan nan nan nan nan nan nan nan nan nan nan nan nan nan nan nan nan nan nan nan nan nan nan nan nan nan nan nan nan nan nan nan nan nan nan nan -0 -0 -0 -0 -0 -0 -0 -0 -0 -0 -0 -0 -0 -0 -0 -0 -0 -0 -0 -0 -0 -0 -0 -0 -0 -0 -0
nan nan nan nan nan nan nan nan nan nan nan nan nan nan nan nan nan nan nan nan nan nan nan nan nan nan nan nan nan nan nan nan nan nan nan nan nan nan nan nan nan nan nan nan nan nan nan nan nan nan nan nan nan nan nan nan nan nan nan -0 -0 -0 -0 -0 -0 -0 -0 -0 -0 -0 -0 -0 -0 -0 -0 -0 -0 -0 -0 -0 -0 -0 -0 -0 -0 -0
nan nan nan nan nan nan nan nan nan nan nan nan nan nan nan nan nan nan nan nan nan nan nan nan nan nan nan nan nan nan nan nan nan nan nan nan nan nan nan nan nan nan nan nan nan nan nan nan nan nan nan nan nan nan nan nan nan nan nan -0 -0 -0 -0 -0 -0 -0 -0 -0 -0 -0 -0 -0 -0 -0 -0 -0 -0 -0 -0 -0 -0 -0 -0 -0 -0 -0
nan nan -0 -0 -0 -0 -0 -0 -0 -0 -0 nan nan nan nan nan nan nan nan nan nan nan nan nan nan nan nan nan nan nan nan nan nan nan nan nan nan nan nan nan nan nan nan nan nan nan nan nan nan nan nan nan nan nan nan nan nan nan nan nan nan -0 -0 -0 -0 -0 -0 -0 -0 -0 -0 -0 -0 -0 -0 -0 -0 -0 -0 -0 -0 -0 -0 -0 -0 -0
nan nan nan -0 -0 -0 -0 -0 -0 -0 -0 -0 -0 -0 nan nan nan nan nan nan nan nan nan nan nan nan nan nan nan nan nan nan nan nan nan nan nan nan nan nan nan nan nan nan nan nan nan nan nan nan nan nan nan nan nan nan nan nan nan nan nan nan -0 -0 -0 -0 -0 -0 -0 -0 -0 -0 -0 -0 -0 -0 -0 -0 -0 -0 -0 -0 -0 -0 -0 -17
nan nan nan nan nan nan nan nan nan nan -0 -0 -0 -0 nan nan nan nan nan nan nan nan nan nan nan nan nan nan nan nan nan nan nan nan nan nan nan nan nan nan nan nan nan nan nan nan nan nan nan nan nan nan nan nan nan nan nan nan nan nan nan nan nan -0 -0 -0 -0 -0 -0 -0 -0 -0 -0 -0 -0 -0 -0 -0 -0 -0 -0 -0 -0 -0 -0 nan
nan nan nan nan nan nan nan nan nan nan nan -0 -0 -0 nan nan nan nan nan nan nan nan nan nan nan nan nan nan nan nan nan nan nan nan nan nan nan nan nan nan nan nan nan nan nan nan nan nan nan nan nan nan nan nan nan nan nan nan nan nan nan nan nan nan nan -0 -0 -0 -0 -0 -0 -0 -0 -0 -0 -0 -0 -0 -0 -0 -0 -0 -2 -13 -13 nan
nan nan nan nan nan nan nan nan nan nan nan nan nan nan nan nan nan nan nan nan nan nan nan nan nan nan nan nan nan nan nan nan nan nan nan nan nan nan nan nan nan nan nan nan nan nan nan nan nan nan nan nan nan nan nan nan nan nan nan nan nan nan nan nan nan nan -0 -0 -0 -0 -0 -0 -0 -0 -0 -0 -0 -0 -0 -0 -0 -0 nan nan nan nan
nan nan nan nan nan nan nan nan nan nan nan nan nan nan nan nan nan nan nan nan nan nan nan nan nan nan nan nan nan nan nan nan nan nan nan nan nan nan nan nan nan nan nan -13 -13 nan nan nan nan nan nan nan nan nan nan nan nan nan nan nan nan nan nan nan nan nan nan nan -0 -0 -0 -0 -0 -0 -0 -0 -0 -0 -0 -0 -0 -0 nan nan nan -20
nan nan nan nan nan nan nan nan nan nan nan nan nan nan nan nan nan nan nan nan nan nan nan nan nan nan nan nan nan nan nan nan nan nan nan nan nan nan nan nan nan nan nan nan nan -9 nan nan nan nan nan nan nan nan nan nan nan nan nan nan nan nan nan nan nan nan nan nan nan nan -0 -0 -0 -0 -0 -0 -0 -0 -0 -0 -0 -0 -0 -18 -18 -13
nan nan nan nan nan nan nan nan nan nan nan nan nan nan nan nan nan nan nan nan nan nan nan nan nan nan nan nan nan nan nan nan nan nan -10 nan nan nan nan nan nan nan nan nan nan nan nan nan nan nan nan nan nan nan nan nan nan nan nan nan nan nan nan nan nan nan nan nan nan nan nan nan nan nan nan -0 -0 -0 -0 -0 -0 -0 -0 -0 -0 -6
nan nan nan nan nan nan nan nan nan nan nan nan nan nan nan nan nan nan nan nan nan nan nan nan nan nan nan nan nan nan nan nan nan nan -6 nan nan nan nan nan nan nan nan nan nan nan nan nan nan nan nan nan nan nan nan nan nan nan nan nan nan nan nan nan nan nan nan nan nan nan nan nan nan nan nan nan -0 -0 -0 -0 -0 -0 -0 -0 -0 -0
nan nan nan nan nan nan nan nan nan nan nan nan nan nan nan nan nan nan nan nan nan nan nan nan nan nan nan nan nan nan nan nan nan nan -2 -15 nan nan nan nan nan -8 nan nan nan nan nan nan nan -0 -0 nan nan nan nan nan nan nan nan nan nan nan nan nan nan nan nan nan nan nan nan nan nan nan nan -0 -0 -0 -0 -0 -0 -0 -0 -0 -0 -0
nan nan nan nan nan nan nan nan nan nan nan nan nan nan nan nan nan nan nan nan nan nan nan nan nan nan nan nan nan nan nan nan nan nan -11 nan nan nan -7 -6 -6 -3 -6 nan nan nan nan nan nan nan nan nan nan nan nan nan nan nan nan nan nan nan nan nan nan nan nan nan nan nan nan nan nan nan nan -0 -0 -0 -0 -0 -0 -0 -0 -0 -0 -0
nan nan nan nan nan nan nan nan nan nan nan nan nan nan nan nan nan nan nan nan nan nan nan nan nan nan nan nan nan nan nan nan nan nan nan nan nan nan nan -6 -6 -2 -5 nan nan nan nan nan nan nan nan nan nan nan nan nan nan nan nan nan nan nan nan nan nan nan nan nan nan nan nan nan nan nan nan nan nan nan nan nan nan -4 -0 -0 -0 -0
nan nan nan nan nan nan nan nan nan nan nan nan nan nan nan nan nan nan nan nan nan nan nan nan nan nan nan nan nan nan nan nan nan nan nan nan nan nan nan nan nan nan -7 nan nan nan nan nan nan nan nan nan nan nan nan nan nan nan nan nan nan nan nan nan nan nan nan nan nan nan nan nan nan nan nan nan nan nan nan nan nan nan nan nan nan -1
nan nan nan nan nan nan nan nan nan nan nan nan nan nan nan nan nan nan nan nan nan nan nan nan nan nan nan nan nan nan nan nan -19 -19 nan nan nan nan nan nan nan nan nan nan nan nan nan nan nan nan nan nan nan nan nan nan nan nan -1 nan nan nan nan nan nan nan nan nan nan nan nan nan nan nan nan nan nan nan nan nan nan nan nan nan nan nan
nan nan nan nan nan nan nan nan nan nan nan nan nan nan nan nan nan nan nan nan nan nan nan nan nan nan nan nan nan nan nan nan nan nan nan nan nan nan nan nan nan nan nan nan nan nan nan nan nan nan nan nan nan nan nan nan nan -0 -0 nan nan nan nan -9 -9 nan nan nan nan nan -15 nan -9 -9 -11 -11 nan nan nan nan nan nan nan nan nan nan
nan nan nan nan nan nan nan nan nan nan nan nan nan nan nan nan nan nan nan nan nan nan nan nan nan nan nan nan nan nan nan nan nan nan nan nan nan nan nan nan nan nan nan nan nan nan nan nan nan nan nan nan nan nan nan nan nan -2 -0 -5 -5 nan -4 -7 -7 nan nan nan nan nan -6 -10 nan nan -12 nan nan nan nan nan nan nan nan nan nan nan
nan nan nan nan nan nan nan nan nan nan nan nan nan nan nan nan nan nan nan nan nan nan nan nan nan nan nan nan nan nan nan nan nan nan nan nan nan nan nan nan nan nan nan nan nan nan nan -2 -2 nan nan nan nan nan nan nan nan nan -6 -4 -4 -4 nan nan nan nan nan nan nan nan nan nan nan nan nan nan nan nan nan nan nan -4 -5 nan nan nan
nan nan nan nan nan nan nan nan nan nan nan nan nan nan nan nan nan nan nan nan nan nan nan nan nan nan nan nan nan nan nan nan nan nan nan nan nan nan nan nan nan nan nan nan nan nan nan nan nan nan nan nan nan nan nan nan nan nan nan -6 -6 -5 nan nan nan nan nan nan nan nan nan nan nan nan nan nan nan nan nan nan nan nan nan nan nan nan
nan nan nan nan nan nan nan nan nan nan nan nan nan nan nan nan nan nan nan nan nan nan nan nan nan nan nan nan nan nan nan nan nan nan nan nan nan nan nan nan nan nan nan nan nan nan nan nan nan nan nan nan nan nan nan nan nan nan -3 -3 -3 -5 -10 -8 -8 nan nan nan nan nan nan nan nan nan nan nan nan nan nan nan nan nan nan nan nan nan
nan nan nan nan nan nan nan nan nan nan nan nan nan nan nan nan nan nan nan nan nan nan nan nan nan nan nan nan nan nan nan nan nan nan nan nan nan nan nan nan nan nan nan nan nan nan nan nan nan nan nan nan -10 -10 nan nan nan nan nan -3 -3 -8 -9 -11 -11 -13 nan nan nan nan nan nan nan nan nan nan nan nan nan nan nan nan nan nan nan nan
nan nan nan nan nan nan nan nan nan nan nan nan nan nan nan nan nan nan nan nan nan nan nan nan nan nan nan nan nan nan nan nan nan nan nan nan nan nan nan nan nan nan nan nan nan nan nan nan nan nan nan nan nan nan nan nan nan nan nan nan nan nan nan nan nan nan nan nan nan nan nan nan nan nan nan nan nan nan nan nan nan nan nan nan nan nan
nan nan nan nan nan nan nan nan nan nan nan nan nan nan nan nan nan nan nan nan nan nan -1 nan nan nan nan nan nan nan nan nan nan nan nan nan nan nan nan nan nan nan nan nan nan nan nan nan nan nan nan nan nan nan nan nan nan nan nan nan nan nan nan nan nan nan nan nan nan nan nan nan nan nan nan nan nan nan nan nan nan nan nan nan nan nan
nan nan nan nan nan nan nan nan nan nan nan nan nan nan nan nan -0 -0 nan nan nan nan nan nan nan nan nan nan nan nan nan nan nan nan nan nan nan nan nan nan nan nan nan nan nan nan nan nan nan nan nan nan nan nan nan nan nan nan nan nan nan nan nan nan nan nan nan nan nan nan nan nan nan nan nan nan nan nan nan nan nan nan nan nan nan nan
nan nan nan nan nan nan nan nan nan nan nan nan nan nan nan nan nan nan nan nan nan nan nan nan nan nan nan nan nan nan nan nan nan nan nan nan nan nan nan nan nan nan nan nan nan nan nan -19 -19 -13 -5 -6 nan nan nan nan nan nan nan nan nan nan nan nan nan nan nan nan nan nan nan nan -31 -31 nan nan -8 -8 nan nan nan nan nan nan nan nan
nan nan nan nan nan nan nan nan nan nan nan nan nan nan nan nan nan nan nan nan nan nan nan nan nan nan nan nan nan nan nan nan nan nan nan nan nan nan nan nan nan nan nan nan nan nan nan nan nan nan -5 -0 -5 -5 nan nan nan nan nan nan nan nan nan nan nan nan nan nan nan nan nan nan -30 -30 nan nan nan nan -9 nan nan nan nan nan nan nan
Wind_Speed
2 2 3 4 5 4 3 4 4 4 3 3 2 2 1 2 2 2 3 3 3 2 2 2 3 4 7 11 12 12 11 9 8 8 7 7 7 7 8 8 8 8 9 9 10 10 10 11 11 11 11 11 11 11 11 11 11 11 11 11 11 11 12 12 12 12 12 12 12 12 12 12 12 12 12 12 12 12 13 13 13 14 14 14 14 15
2 2 2 4 4 4 3 4 4 4 4 3 3 2 1 1 1 1 1 2 2 2 2 3 4 6 8 11 12 12 11 9 8 7 7 7 7 7 8 8 8 9 9 10 10 11 11 11 11 11 11 11 11 11 11 11 11 11 11 11 11 12 12 12 12 12 12 12 12 12 12 12 12 12 12 12 13 13 13 14 14 14 14 14 15 15
2 2 2 2 3 3 3 3 3 3 3 3 3 2 2 1 1 1 1 2 3 3 3 4 6 7 9 10 11 11 9 8 7 7 7 7 7 7 7 8 8 9 10 11 11 11 11 11 11 11 10 10 10 10 11 11 11 11 11 11 12 12 12 12 12 12 12 12 12 12 12 12 12 12 13 13 13 13 14 14 14 14 14 15 15 15
1 2 2 2 2 2 2 2 3 3 3 2 2 2 2 1 1 2 2 3 4 4 5 6 7 7 7 7 8 8 8 7 7 6 6 7 7 7 7 8 9 10 11 11 11 11 11 11 11 10 10 10 10 11 11 11 11 11 11 11 12 12 12 12 12 12 12 12 12 12 12 12 12 13 13 13 13 14 14 14 14 14 14 15 15 15
1 1 2 1 2 2 2 2 3 3 3 2 2 2 2 2 2 3 3 4 5 5 5 6 6 6 5 4 4 5 5 5 5 5 6 6 6 7 8 9 10 11 11 11 11 11 11 11 10 10 10 10 10 11 11 11 11 11 11 11 12 12 12 12 12 12 12 12 12 12 12 12 12 13 13 13 13 14 14 14 14 14 14 15 15 15
1 1 2 2 1 1 2 2 2 2 2 2 1 2 2 3 3 4 4 5 5 5 4 4 3 3 2 2 2 2 3 3 4 4 5 6 7 8 9 10 11 11 11 11 11 11 10 10 10 10 10 10 11 11 11 11 11 11 11 12 12 12 12 12 12 12 12 12 12 12 12 12 12 12 13 13 13 13 14 14 14 14 14 15 15 15
1 2 2 2 1 1 1 1 2 2 2 1 1 2 2 3 3 4 4 4 3 3 2 2 2 1 1 1 1 1 2 3 4 4 5 6 7 8 9 10 11 11 11 11 10 10 10 10 10 10 10 10 11 11 11 11 12 12 12 12 12 12 12 12 12 12 12 12 12 12 12 12 12 12 12 13 13 13 13 14 14 14 14 15 15 15
2 2 2 2 1 1 1 1 1 2 2 1 1 2 2 2 3 2 2 1 1 1 1 1 1 0 0 1 1 1 2 2 3 3 4 5 6 7 8 9 10 10 10 10 10 10 10 10 10 10 11 11 11 12 12 12 12 12 12 12 12 12 11 11 12 12 12 12 12 12 12 12 12 12 12 12 13 13 13 13 14 14 14 15 15 16
2 2 1 1 1 1 1 1 1 1 2 2 2 2 2 3 2 2 1 1 0 0 1 1 0 0 1 1 1 1 1 1 1 2 3 3 3 5 7 8 9 9 9 9 9 10 10 10 10 11 11 12 12 12 12 12 12 12 12 11 11 11 11 11 12 12 12 12 12 12 12 12 12 12 12 13 13 13 13 14 14 14 15 15 16 16
2 2 1 1 1 1 1 1 1 1 1 2 2 2 2 3 3 2 2 1 1 1 1 0 0 0 1 2 2 1 1 1 3 4 5 5 5 6 7 7 7 8 9 9 10 10 10 11 11 12 12 12 12 12 12 12 12 11 11 11 11 11 11 11 12 12 12 12 12 12 12 12 12 12 13 13 13 13 14 14 14 15 15 16 16 16
2 1 1 1 1 1 1 1 1 1 2 2 1 1 1 1 2 2 2 2 1 1 1 1 0 0 0 2 2 2 1 2 3 4 5 6 7 7 7 7 7 8 9 9 10 10 11 12 12 12 12 12 12 12 12 11 11 11 11 11 11 12 12 12 12 12 12 12 12 12 12 13 13 13 13 14 14 14 14 15 15 15 16 16 16 17
1 1 1 1 1 1 0 0 1 1 1 2 1 1 1 1 1 2 3 2 1 1 1 1 1 0 1 1 1 1 1 2 2 2 3 4 4 4 5 5 5 6 7 7 8 9 11 11 12 12 12 11 12 12 12 11 12 12 12 12 12 12 12 12 12 12 12 12 13 13 13 13 14 14 14 14 15 15 15 15 16 16 16 17 17 17
1 1 1 1 1 0 0 0 0 1 1 2 2 2 2 1 0 1 2 1 1 0 0 1 2 2 1 1 0 1 1 1 1 1 2 2 2 2 2 2 2 3 3 4 4 6 8 10 10 11 11 11 11 12 12 12 12 13 13 12 12 12 12 12 12 13 13 13 13 13 14 14 14 14 15 15 15 15 16 16 16 16 17 17 17 18
1 1 1 1 1 0 0 0 1 1 1 2 2 1 1 0 1 1 2 1 0 1 1 1 2 2 2 1 1 1 1 1 1 1 1 1 1 1 1 1 2 2 2 2 3 4 6 7 7 7 10 10 11 12 12 12 13 13 13 13 13 13 13 13 13 13 13 13 14 14 14 14 15 15 15 15 16 16 16 16 17 17 17 17 18 18
1 1 1 1 1 1 0 0 1 1 1 1 0 0 1 1 1 1 2 1 1 1 2 2 2 2 2 2 1 1 1 1 1 1 2 2 2 1 1 1 2 2 2 2 3 4 5 5 4 5 6 8 9 10 11 12 12 13 13 13 13 13 13 13 13 13 14 14 14 14 14 15 15 15 15 16 16 16 16 17 17 17 18 18 18 18
1 1 0 0 1 1 1 0 0 1 1 0 0 0 1 1 1 1 2 1 1 1 2 2 2 2 3 2 1 1 1 1 1 1 2 3 2 1 2 1 2 3 2 2 3 3 3 3 4 4 5 8 10 12 13 12 13 13 13 13 13 14 14 14 14 14 14 14 14 14 15 15 15 15 16 16 16 16 17 17 17 18 18 18 18 19
1 1 1 1 1 1 1 0 0 0 0 1 1 1 1 1 1 1 2 1 1 1 2 2 1 1 2 2 2 1 1 1 1 1 2 3 3 1 2 1 2 3 3 3 3 3 3 3 4 4 5 8 10 12 13 13 13 13 14 14 14 14 14 14 14 14 14 14 14 14 15 15 15 15 16 16 16 16 17 17 17 18 18 18 18 19
1 1 1 1 1 1 1 1 1 0 0 0 1 1 1 1 1 1 1 2 2 2 1 1 1 1 1 2 2 1 1 1 1 2 3 4 3 2 2 2 2 3 3 3 3 3 3 3 3 4 5 9 11 12 13 13 14 14 14 14 14 14 14 14 14 14 14 14 14 15 15 15 15 15 16 16 16 16 17 17 17 17 18 18 18 19
0 1 1 1 1 1 1 1 1 0 0 0 1 1 1 1 1 1 1 1 2 2 2 1 1 1 2 2 3 2 1 1 0 2 3 4 3 2 1 1 1 2 3 3 3 3 3 3 5 7 9 11 12 13 14 14 14 14 14 14 14 14 14 14 14 14 14 14 15 15 15 15 15 15 16 16 16 16 17 17 17 17 18 18 18 19
0 0 1 1 1 0 1 1 1 1 1 1 2 2 1 1 1 1 1 1 1 2 2 2 1 2 2 2 3 2 1 1 1 1 3 4 3 3 1 1 1 2 3 3 3 3 3 3 4 6 9 10 12 13 14 14 15 15 15 14 14 14 14 14 14 14 14 14 14 14 15 15 15 15 16 16 16 16 17 17 17 18 18 18 19 19
1 0 1 1 2 1 0 1 2 2 2 2 2 2 1 1 1 0 0 0 1 1 1 1 2 3 2 2 3 2 1 1 1 1 2 3 3 2 1 1 1 2 3 3 3 3 2 3 3 4 6 10 12 14 15 15 15 15 15 14 14 14 14 14 14 14 14 14 14 14 15 15 15 15 16 16 16 17 17 17 17 18 18 18 19 19
1 1 2 2 2 2 2 2 3 2 3 3 3 2 2 2 1 1 1 1 2 2 2 2 3 3 2 2 3 3 2 1 1 1 1 2 3 3 1 0 0 1 3 3 2 2 2 2 3 4 7 10 13 14 15 15 15 15 14 14 14 14 13 13 14 14 14 14 14 14 15 15 15 16 16 16 16 16 17 17 17 18 18 18 18 19
2 1 2 2 2 2 2 2 2 2 3 3 3 3 3 3 2 2 2 3 3 3 3 2 2 1 1 2 2 2 1 1 2 1 0 2 3 3 2 0 1 1 3 3 3 2 2 3 3 4 7 11 13 14 15 15 15 14 14 13 13 13 13 13 13 13 14 14 14 15 15 15 16 16 16 16 16 16 16 17 17 17 18 18 18 18
2 2 2 2 3 3 2 2 2 2 2 3 3 3 3 3 3 2 2 3 2 2 1 0 1 2 2 2 2 2 1 0 2 2 1 2 3 3 2 1 1 2 4 3 3 3 4 4 4 4 5 10 12 14 15 14 14 13 13 13 13 13 13 13 13 14 14 15 15 15 16 16 16 16 16 16 16 16 16 16 17 17 17 18 18 18
2 2 2 3 3 3 3 3 3 3 3 3 2 2 2 2 2 2 2 2 2 2 2 2 2 2 2 2 2 2 2 1 1 2 1 1 2 3 2 1 1 2 4 3 3 3 4 5 5 4 4 7 10 13 13 13 13 13 12 12 12 13 13 14 14 15 15 15 16 16 16 16 16 16 16 16 16 16 16 16 17 17 17 17 18 18
1 1 1 1 2 3 3 3 3 4 4 4 3 2 1 1 2 2 2 1 1 1 1 2 2 2 2 1 2 2 2 1 1 2 2 1 2 2 2 1 1 2 4 4 4 4 5 6 6 5 4 5 7 10 11 12 12 12 12 12 13 13 14 15 15 16 16 16 16 16 16 16 16 16 16 16 16 16 16 16 16 17 17 17 17 17
5 5 5 6 6 7 7 7 6 6 5 4 3 2 3 2 1 1 0 0 0 0 1 2 2 2 2 1 2 2 2 1 1 1 2 1 1 2 2 1 1 1 3 4 4 4 6 7 6 5 4 4 4 6 9 10 10 11 12 13 13 14 15 15 16 16 16 16 16 16 16 16 16 16 16 16 16 16 16 16 16 17 17 16 15 13
8 8 8 8 8 9 9 9 8 8 7 7 6 3 1 2 2 1 2 1 1 1 1 2 3 3 2 2 2 2 2 2 1 1 2 1 1 2 2 1 1 1 2 3 4 5 6 6 6 5 5 3 3 3 5 7 9 10 12 13 14 15 15 16 16 16 16 16 16 16 16 16 16 16 16 16 16 16 16 16 16 16 15 13 9 7
7 7 7 8 8 8 8 8 8 8 7 7 7 6 2 2 2 2 3 2 2 1 2 3 3 3 3 2 2 2 2 2 1 1 2 1 0 2 2 1 1 1 2 3 4 4 4 4 4 3 3 3 2 2 3 5 7 9 11 13 14 15 15 15 15 15 15 15 16 16 16 16 16 16 16 16 16 16 16 17 16 14 11 9 7 6
5 6 6 6 7 7 6 5 6 7 8 7 7 6 3 1 2 2 2 3 2 2 3 3 3 3 2 2 2 2 2 2 1 1 2 1 0 1 1 1 1 1 1 3 3 4 3 3 2 2 2 2 3 3 3 4 5 6 7 9 10 12 13 14 15 15 15 15 15 16 16 16 16 16 16 16 16 16 17 17 15 12 7 6 6 6
3 3 3 4 4 4 4 4 4 5 6 6 6 5 3 0 2 3 3 3 3 3 3 3 2 2 2 1 1 2 2 3 2 1 3 2 0 1 1 1 1 1 0 1 3 4 4 3 2 2 2 3 4 4 4 4 4 4 4 5 6 8 11 12 13 14 14 15 15 15 16 16 16 16 16 16 17 17 17 17 15 11 7 6 6 6
2 2 2 3 3 3 3 3 3 3 3 4 4 3 2 1 2 3 3 3 4 4 3 3 2 2 2 2 2 2 2 3 2 2 2 1 0 1 1 1 2 2 1 1 2 3 4 4 3 3 3 4 4 5 5 5 5 4 4 4 4 6 9 10 11 12 12 13 14 15 15 16 16 16 17 17 17 17 17 18 16 12 7 6 6 6
2 2 2 3 3 3 3 3 3 3 3 3 3 2 2 1 1 2 2 3 3 3 3 3 3 2 2 3 3 3 3 3 3 3 2 1 1 1 1 2 2 2 2 2 2 3 4 4 5 5 5 5 4 4 5 5 5 5 5 4 4 5 7 8 8 8 9 10 11 12 14 15 15 16 16 17 17 17 17 17 16 14 10 7 6 7
2 2 3 3 3 3 3 3 3 3 3 3 3 2 2 1 1 1 2 2 2 3 3 3 3 2 2 3 3 3 3 3 3 3 3 2 1 2 2 2 3 3 3 3 3 3 4 5 5 5 5 5 4 4 4 5 5 5 4 4 4 4 5 5 5 6 7 7 7 8 9 10 11 13 14 15 15 16 16 17 17 16 15 11 8 7
2 3 3 3 3 3 4 3 3 3 3 3 2 2 2 2 1 1 1 2 2 2 2 3 3 3 3 3 3 3 3 3 3 3 3 2 2 2 2 3 3 3 3 3 3 3 4 5 6 6 6 6 5 4 3 4 4 4 4 4 4 4 5 5 5 5 6 6 6 6 6 6 7 8 10 12 13 15 16 17 17 18 17 16 13 10
2 2 3 3 3 3 3 3 3 3 3 3 2 2 2 2 2 1 1 1 2 2 2 2 2 3 3 3 3 4 4 3 3 3 4 3 2 2 3 3 3 3 3 4 4 4 4 5 6 7 7 7 6 5 3 3 3 3 3 4 5 5 5 5 5 5 5 6 6 6 5 5 5 6 7 11 13 15 17 17 18 18 18 18 17 15
2 2 2 2 2 2 2 3 3 2 2 2 2 2 2 2 2 2 2 2 2 2 2 3 3 3 3 3 3 4 4 3 3 4 5 4 3 3 3 4 4 4 4 4 4 4 5 5 6 7 7 6 6 5 4 3 3 3 4 4 5 5 6 6 5 5 5 6 6 6 6 5 6 6 7 11 13 14 15 16 17 17 18 18 18 18
1 2 2 2 2 1 2 2 2 2 2 2 2 3 3 3 3 3 3 3 3 3 3 3 3 4 5 5 5 4 4 4 4 5 5 4 4 4 5 5 5 5 5 5 5 5 5 6 7 7 6 6 6 6 6 5 5 5 5 5 5 5 5 5 5 5 5 6 6 7 7 7 6 6 7 8 8 8 9 9 11 13 15 15 16 18
1 2 2 2 2 1 1 2 2 3 3 3 3 3 3 3 3 3 3 3 3 4 4 4 4 4 5 5 6 6 6 5 5 6 6 5 5 5 5 5 5 5 5 5 5 5 5 6 6 6 6 6 7 7 6 6 6 7 7 6 6 5 5 4 4 4 4 5 6 7 8 7 6 6 5 5 5 5 5 6 7 8 9 8 10 13
1 2 2 2 2 2 2 3 3 3 3 3 4 4 3 3 3 3 3 3 3 3 4 4 4 4 4 5 5 6 6 5 6 6 5 5 5 5 5 6 6 5 5 5 5 5 6 6 7 7 7 7 7 7 7 6 7 7 8 7 6 5 4 4 5 5 5 5 6 6 6 6 5 6 6 6 5 5 5 5 5 6 6 6 6 7
2 2 3 3 3 3 3 3 3 3 3 3 2 2 2 2 2 2 2 2 2 2 2 3 3 3 4 4 4 5 6 6 7 7 5 6 6 6 6 6 5 5 5 5 5 6 6 7 7 8 8 8 8 9 9 8 9 9 10 8 8 7 7 7 7 6 6 6 6 6 7 7 8 8 7 8 7 6 6 6 6 7 7 6 6 6
2 2 3 3 3 3 3 3 3 3 2 1 1 2 2 2 2 2 2 2 2 2 2 2 2 3 3 4 4 4 5 6 6 7 7 7 7 7 6 6 5 5 5 6 6 6 6 7 7 8 8 8 8 8 9 9 9 9 9 9 9 9 9 8 6 5 6 6 6 7 8 8 8 8 8 8 8 7 7 7 8 9 9 7 6 5
2 2 3 3 3 2 3 3 3 2 2 2 2 2 3 3 3 3 3 3 3 3 3 3 3 3 4 4 4 4 4 5 6 7 7 7 7 7 7 7 6 6 5 5 6 7 7 7 8 8 7 7 8 9 10 9 9 9 8 9 9 8 7 6 5 5 5 6 7 7 7 7 7 8 8 8 7 7 7 8 10 11 10 8 7 6
2 2 2 2 2 2 1 1 2 2 2 2 3 3 3 3 3 3 3 3 3 3 3 3 3 3 4 5 4 4 3 4 4 5 6 7 7 7 7 7 7 6 6 5 6 6 7 7 7 7 7 7 8 9 9 9 9 9 8 8 8 8 7 7 7 7 7 7 7 7 7 7 7 8 8 8 7 7 6 7 8 8 9 8 8 7
2 2 2 2 2 1 1 2 2 2 3 3 3 3 3 3 4 4 3 3 3 3 3 3 3 3 4 4 4 3 3 3 3 3 4 6 8 8 7 6 6 6 6 6 6 6 6 7 7 7 7 7 8 9 9 9 10 10 9 9 9 9 9 9 8 8 8 8 8 7 7 7 7 8 8 8 8 7 7 7 8 8 8 7 7 8
2 2 2 1 2 2 3 2 2 2 3 3 3 3 3 3 3 3 4 4 4 4 3 3 3 3 4 4 4 4 3 3 3 3 3 4 4 5 6 6 6 6 6 6 7 7 7 7 7 7 8 8 9 9 9 9 9 9 9 9 9 9 9 9 8 8 8 8 8 8 8 7 7 7 8 9 9 9 8 8 8 8 8 7 8 8
2 2 2 2 2 2 3 2 2 2 3 3 3 3 3 3 3 3 4 4 4 4 4 3 3 4 5 4 4 4 4 5 4 3 3 3 3 4 4 5 6 6 6 6 7 8 8 8 8 8 8 9 9 10 9 9 9 9 9 9 9 9 9 9 8 8 8 8 8 7 6 6 7 8 9 9 9 9 8 8 8 8 8 8 8 8
3 3 2 2 2 2 2 2 2 3 3 4 4 4 3 4 4 4 4 3 3 3 4 3 3 4 5 5 5 5 5 5 5 4 4 3 3 3 3 4 4 5 6 7 8 8 9 9 9 9 9 9 9 10 10 9 9 9 9 9 9 9 9 9 8 8 8 8 7 6 5 6 7 8 9 9 9 9 9 9 8 8 7 7 8 8
2 2 3 2 2 2 2 2 3 3 3 4 4 4 3 4 5 5 4 3 3 3 3 4 4 5 5 5 5 5 6 6 5 4 4 3 3 3 3 3 4 4 5 5 6 7 8 9 10 10 10 10 10 10 10 10 9 9 8 8 8 9 9 9 9 8 8 8 7 7 6 6 7 8 8 9 10 11 11 10 9 8 7 7 7 8
2 2 2 2 2 3 3 3 3 4 4 5 5 4 3 3 3 3 3 3 3 3 3 4 5 5 5 5 5 6 6 5 5 4 4 3 3 3 3 3 4 4 5 4 4 5 5 6 7 9 11 11 11 11 10 10 9 9 9 8 8 8 8 9 8 8 8 8 8 7 6 6 7 7 7 8 10 11 11 10 10 9 7 7 7 8
2 2 2 2 3 3 3 3 3 4 5 5 5 5 4 3 3 3 3 3 3 3 4 4 5 5 6 6 6 6 6 6 6 5 5 3 3 3 4 4 4 4 5 5 4 4 4 4 5 6 8 11 12 12 9 8 8 8 8 8 7 7 7 8 8 8 8 8 8 7 7 7 7 7 6 7 9 10 11 11 10 9 7 6 7 8
Wind_Direction
95 112 122 132 136 141 152 151 150 149 150 148 150 160 178 179 167 166 188 200 205 208 214 224 240 251 256 254 253 253 255 260 265 271 276 280 285 289 293 297 299 302 305 306 307 307 306 305 303 301 299 297 295 293 292 291 291 291 291 291 291 291 291 291 291 291 291 292 292 293 294 295 296 296 296 295 293 291 289 287 286 286 285 285 284 284
88 97 106 127 134 139 145 147 149 150 150 148 150 150 149 163 177 187 208 215 213 212 215 229 237 241 244 247 248 249 252 258 266 273 279 284 288 293 296 300 304 307 310 310 310 308 306 304 301 299 297 295 293 292 291 290 290 290 290 289 289 289 288 288 288 288 288 288 288 288 288 288 288 288 288 287 286 284 283 282 282 283 283 284 284 284
93 97 100 115 123 128 131 137 137 134 133 138 144 146 143 158 196 228 233 233 229 225 225 229 234 237 238 241 242 244 249 259 268 276 282 286 292 296 301 305 309 311 312 311 309 306 303 301 298 296 294 293 292 291 290 289 289 288 288 287 287 286 286 285 285 285 284 284 283 283 283 283 283 282 283 282 282 282 282 282 283 284 285 285 285 285
83 97 105 99 95 98 107 120 120 118 120 125 132 137 139 163 204 226 230 231 231 231 230 229 231 232 234 235 238 243 251 261 272 280 286 292 297 302 307 310 311 312 311 308 305 302 299 297 296 294 293 292 291 290 290 289 288 288 288 287 287 286 286 285 284 284 283 282 281 281 281 281 281 281 281 281 282 283 284 284 285 286 286 286 285 285
64 86 99 91 84 82 85 100 109 115 116 120 129 142 157 191 215 226 230 230 231 231 231 229 227 227 229 231 240 250 260 272 283 291 298 304 308 311 312 312 311 310 308 305 302 300 297 296 295 294 293 293 292 291 291 290 290 290 290 290 289 289 288 287 287 286 285 284 284 283 283 282 282 282 282 283 283 284 284 285 285 285 285 285 285 284
65 73 83 80 81 86 88 102 111 115 113 123 147 173 196 211 221 227 230 229 229 228 227 220 216 218 222 229 252 275 291 305 316 321 323 322 320 318 315 313 310 308 306 303 301 298 297 296 296 295 295 295 294 294 294 294 294 294 293 293 292 292 291 291 290 290 289 288 288 287 286 285 284 284 284 284 284 284 285 285 285 285 285 285 284 284
75 67 69 68 69 75 86 108 123 128 125 143 174 201 214 220 225 228 230 228 226 222 212 195 188 194 220 262 320 1 11 10 6 358 345 335 327 321 317 313 311 308 305 303 300 299 299 298 298 298 298 298 298 298 298 297 297 297 296 296 295 294 294 293 293 292 292 291 290 289 288 287 286 285 285 285 285 285 285 285 285 285 285 285 285 285
87 74 63 62 63 64 68 95 132 148 152 165 189 211 223 225 226 225 223 222 225 220 201 183 175 176 335 337 1 28 43 38 26 8 350 339 330 323 318 314 312 309 306 304 303 302 302 302 302 303 303 302 302 301 300 299 299 298 298 297 297 296 295 294 294 293 292 292 291 289 288 287 287 286 286 286 285 285 285 285 285 285 286 286 286 285
85 84 69 64 73 85 83 93 145 162 166 183 197 207 216 220 219 215 197 187 250 276 228 177 149 39 339 336 343 359 35 39 18 352 342 339 330 323 319 317 314 311 309 308 307 306 307 307 307 306 306 304 303 302 301 300 300 299 299 298 297 296 295 295 294 293 292 291 290 289 288 288 287 286 286 285 284 284 284 284 284 284 284 285 285 285
66 74 77 64 70 92 108 143 169 167 163 186 198 202 202 205 204 201 197 216 290 317 318 51 95 58 335 330 333 340 358 357 349 344 342 337 331 327 324 325 322 318 314 313 312 311 311 310 309 307 306 304 303 301 301 301 300 300 299 299 298 297 296 295 295 294 292 292 290 290 289 287 287 285 284 284 283 282 282 282 282 282 282 283 283 283
55 59 75 77 78 93 130 169 168 156 153 174 189 201 202 199 192 190 200 224 263 308 333 350 29 67 344 326 329 343 12 1 351 346 345 338 333 330 329 329 327 323 319 317 315 314 311 309 308 306 305 304 303 302 302 302 302 301 301 300 299 298 297 296 295 293 292 291 290 289 288 287 286 285 284 283 282 282 281 281 280 280 280 280 280 281
66 68 82 88 97 113 161 168 146 139 148 162 183 213 240 258 199 181 189 205 220 257 318 322 320 295 228 277 314 342 17 12 358 346 345 339 337 336 334 332 328 324 320 316 313 310 309 307 306 305 304 304 304 304 305 305 304 304 303 301 300 298 297 295 294 293 292 291 290 289 288 286 285 284 283 283 282 281 280 280 279 279 279 279 279 279
75 78 78 76 81 102 153 133 129 141 164 175 193 209 227 240 196 137 148 157 174 221 318 328 318 303 269 259 310 2 21 11 357 343 343 334 335 338 341 328 318 312 310 309 304 301 301 303 303 303 303 303 303 304 305 305 304 303 302 300 298 296 295 294 293 292 291 290 289 288 287 286 285 284 283 283 282 281 281 280 279 279 279 279 278 278
51 53 53 44 31 6 233 158 170 189 207 198 196 198 200 171 118 105 106 93 30 343 9 6 333 314 303 326 2 25 43 21 1 346 336 307 289 275 286 291 288 283 282 286 284 283 287 295 298 299 299 299 301 302 302 302 301 300 299 297 295 294 293 293 292 292 291 290 290 289 288 287 286 286 285 284 284 283 283 282 281 281 280 280 279 279
51 53 46 20 336 297 263 203 204 216 223 214 184 115 88 75 74 88 100 94 19 352 17 15 349 324 312 331 351 19 65 63 33 351 322 293 264 228 201 264 277 277 271 273 273 277 283 287 286 284 286 289 291 293 295 296 296 295 295 294 293 293 293 293 293 292 291 291 290 290 289 289 288 288 287 286 286 285 285 284 283 282 282 281 280 280
81 86 98 275 274 271 264 244 238 249 275 335 12 69 100 94 79 84 102 114 88 29 38 32 5 336 317 322 335 6 71 76 62 339 308 293 274 226 176 236 274 279 274 269 269 273 279 275 270 269 273 282 286 289 291 292 292 292 293 293 293 293 293 293 292 292 291 291 290 290 289 289 288 288 287 287 286 285 285 284 283 282 282 281 280 280
120 139 173 219 247 266 295 345 357 339 350 352 12 39 82 102 107 104 104 113 97 67 58 66 44 339 312 320 326 346 68 75 54 316 300 293 282 246 171 199 258 275 277 271 268 267 271 270 269 269 271 278 283 287 290 290 291 292 292 293 292 292 292 292 292 292 291 291 290 290 289 289 288 287 286 285 285 284 283 282 281 281 280 280 279 279
155 166 178 213 241 271 322 341 349 342 8 35 31 34 42 45 63 85 98 108 104 94 82 91 122 182 245 295 295 290 93 85 31 317 302 294 285 264 184 188 231 262 272 271 267 262 259 260 260 263 268 279 284 288 291 292 292 291 291 291 291 291 291 291 291 291 291 291 290 290 289 288 288 287 286 285 284 283 282 282 281 281 280 280 279 279
176 166 166 196 226 286 327 319 299 274 186 143 102 71 41 19 28 51 75 101 118 126 129 133 170 204 196 240 257 261 159 114 41 314 299 292 286 277 220 197 232 257 267 269 265 260 254 254 258 264 270 280 286 289 291 291 291 291 290 290 290 290 291 291 291 291 290 290 290 289 288 288 287 287 286 285 284 284 283 283 283 282 282 281 281 280
138 237 209 181 164 126 336 285 256 226 194 160 126 103 87 42 33 41 58 88 120 130 135 150 189 224 221 238 254 260 203 107 55 312 288 285 283 279 254 212 237 261 270 269 263 255 248 250 258 266 273 280 285 289 290 290 290 290 290 290 290 290 290 290 290 290 289 289 288 288 288 287 287 287 287 286 286 286 285 284 284 283 282 282 281 280
122 237 237 177 148 138 177 243 239 220 179 136 112 98 102 89 65 38 237 135 128 123 126 169 210 222 216 232 249 255 212 114 61 309 285 283 280 276 260 215 233 262 274 271 262 250 240 246 248 256 265 280 285 288 290 290 290 290 290 290 290 290 290 290 290 289 289 288 288 288 287 287 288 288 288 287 287 287 286 285 284 283 282 282 281 280
130 186 227 186 167 166 187 219 224 209 162 132 121 121 144 147 166 204 210 183 177 182 193 209 217 219 208 230 247 250 204 157 158 234 285 288 285 281 276 244 244 267 274 272 266 253 240 243 246 255 267 280 286 289 290 290 290 290 290 290 290 290 290 290 290 289 289 288 288 288 288 288 288 288 288 287 287 286 286 285 284 283 283 282 282 281
129 164 204 200 195 193 196 209 213 203 170 154 154 162 172 170 178 188 190 184 186 192 200 213 228 245 248 258 269 269 234 175 150 139 153 276 280 282 284 300 300 283 276 277 280 282 275 269 263 265 274 283 287 289 290 290 290 290 290 290 290 290 290 290 290 290 290 290 290 290 289 289 289 288 287 287 286 286 285 285 284 284 284 284 284 283
137 166 193 203 205 205 203 205 204 200 192 188 187 184 179 175 173 171 168 167 164 159 161 122 353 343 323 311 304 300 286 152 123 121 133 251 266 272 280 306 306 294 285 284 290 297 299 291 282 274 275 282 284 286 288 289 289 290 290 291 291 292 292 292 292 292 292 292 292 291 290 289 289 288 287 286 286 286 286 286 286 286 286 286 286 286
155 176 201 206 209 211 215 206 198 195 197 201 208 206 184 159 132 113 106 106 103 93 65 32 5 343 325 333 323 309 297 3 109 129 147 240 265 273 279 291 301 297 293 296 303 309 306 300 293 284 274 276 280 283 286 288 289 291 291 292 293 294 294 295 295 295 294 293 292 291 290 289 288 288 287 287 287 287 288 288 288 288 288 289 289 288
117 166 232 260 272 279 289 261 235 222 214 203 196 188 161 130 102 85 75 77 73 53 15 346 324 306 301 317 306 292 286 310 139 150 156 217 273 285 286 289 294 295 297 302 310 314 307 300 296 290 278 272 275 280 283 287 290 292 294 295 296 297 297 296 296 295 294 293 292 291 290 289 289 288 288 288 289 289 289 290 290 290 291 291 291 290
28 14 2 354 348 343 340 332 320 307 288 267 235 196 156 135 117 106 233 209 174 285 292 283 283 285 287 287 275 271 277 283 241 181 157 173 280 288 288 301 317 312 303 304 305 304 300 296 293 290 283 272 270 275 281 287 292 295 298 298 298 298 297 296 295 294 293 292 291 291 290 289 289 289 289 290 290 290 291 292 292 293 293 293 292 292
19 12 6 1 357 355 352 346 339 329 318 308 299 287 150 136 148 212 242 223 188 177 245 261 272 279 280 269 262 261 268 266 247 194 142 125 262 272 278 304 332 332 315 305 301 295 291 285 283 281 279 273 268 271 280 289 295 298 299 298 297 296 296 295 294 293 292 292 291 291 290 290 291 291 291 291 292 292 292 293 294 294 295 294 294 293
15 10 4 360 358 356 355 349 341 331 322 314 309 311 359 119 159 212 229 195 173 190 238 250 259 268 273 276 278 279 280 269 258 168 118 111 233 266 277 314 335 342 337 314 305 296 283 271 267 267 272 277 277 274 277 290 295 296 295 295 294 294 294 293 293 293 292 292 291 292 292 292 292 292 293 293 293 293 294 294 295 295 295 294 291 288
6 4 360 355 353 353 351 342 334 329 326 320 315 317 353 112 161 187 190 162 161 186 222 238 248 256 267 286 302 308 300 282 269 155 111 111 221 274 296 326 331 335 357 330 317 305 293 276 265 262 273 291 294 290 284 289 288 287 287 289 290 290 291 291 292 292 293 293 293 293 293 293 293 294 294 294 294 294 294 295 295 295 293 290 286 282
349 348 338 333 334 335 334 325 322 323 326 325 323 324 339 155 166 170 162 153 158 173 196 215 227 236 246 272 292 299 290 278 261 172 117 119 210 266 286 318 310 300 336 333 318 309 304 297 287 281 291 301 301 298 295 291 286 282 279 281 282 284 287 290 292 294 294 294 294 294 294 294 294 294 294 294 294 294 294 294 294 293 289 285 281 278
326 324 314 309 311 315 319 318 317 318 320 323 321 318 308 260 192 177 169 165 165 168 177 192 208 222 229 237 241 244 252 263 240 192 135 133 222 257 227 279 289 285 259 271 278 284 293 296 297 299 303 301 299 296 293 291 288 285 283 283 282 283 288 291 294 295 295 295 295 295 295 295 295 295 295 294 294 293 293 292 292 290 286 280 276 274
320 314 308 310 312 314 314 315 316 314 313 312 308 305 301 280 232 204 190 181 174 170 171 182 198 218 230 239 243 244 245 250 237 219 193 190 249 269 261 274 284 287 282 266 256 254 264 279 290 298 299 295 292 290 291 291 289 286 285 286 286 287 291 293 293 293 293 293 293 294 294 294 294 294 293 293 292 291 291 290 289 287 283 278 274 272
330 323 318 321 322 322 319 318 317 315 312 309 306 305 304 291 268 238 215 205 194 185 176 180 191 210 232 245 251 253 251 245 245 248 248 245 261 275 279 278 279 282 283 274 264 260 261 270 281 290 294 292 288 285 285 287 287 285 281 282 284 288 291 293 292 291 290 290 290 290 291 291 290 290 290 290 289 289 288 287 286 285 283 280 278 277
336 327 323 325 325 324 322 321 320 318 316 312 310 310 312 308 298 275 244 229 221 214 205 199 201 208 221 239 252 258 257 244 243 248 256 254 261 272 277 272 271 273 275 273 270 269 270 273 277 283 289 292 291 285 276 274 277 279 279 278 280 284 288 290 290 290 289 288 286 284 283 282 282 282 284 284 284 285 285 285 285 285 285 284 283 282
341 325 316 317 318 317 316 315 316 317 317 310 307 307 313 312 306 293 274 259 252 251 251 243 233 224 221 231 244 254 261 250 242 242 250 249 251 260 268 266 264 264 267 269 269 271 275 279 280 282 285 288 290 289 282 272 271 277 283 283 283 284 284 283 283 283 285 285 284 282 280 278 276 275 276 280 282 284 285 286 286 287 286 286 284 283
338 313 300 300 301 303 303 303 306 307 305 300 302 304 307 302 294 285 275 266 264 264 268 268 266 261 255 247 247 250 258 258 253 249 250 246 245 251 260 264 262 260 258 264 268 273 276 281 283 283 281 280 283 289 294 294 291 287 285 284 284 284 283 281 278 275 275 277 279 280 280 279 278 277 278 281 284 286 287 287 287 286 285 284 283 281
327 301 291 288 285 286 288 289 287 284 279 282 287 290 291 282 274 268 264 258 253 253 257 263 267 267 265 263 259 255 253 250 249 247 245 242 243 248 255 261 261 257 253 258 264 270 274 279 283 284 283 279 280 284 291 296 297 293 287 282 279 278 277 276 272 268 268 273 276 280 281 281 281 281 281 283 284 284 283 281 280 280 281 280 280 279
296 283 279 273 264 254 254 264 267 267 266 267 271 274 276 273 267 260 252 246 241 239 239 244 251 257 259 260 260 260 259 252 247 243 241 240 240 244 251 256 258 257 254 254 257 261 265 269 274 279 283 286 286 286 287 289 291 292 294 290 283 275 268 268 268 268 269 273 278 282 283 282 280 279 277 276 274 273 273 272 271 272 274 275 277 278
255 259 263 258 249 236 234 249 259 265 269 273 276 278 275 271 267 260 249 241 237 236 236 241 249 257 261 262 263 264 263 258 253 248 243 238 237 239 244 250 255 258 258 255 253 254 256 262 267 271 275 280 285 288 289 288 288 291 296 295 292 287 283 283 282 279 275 275 277 279 281 279 276 273 273 273 272 270 269 271 272 273 272 272 275 277
243 253 257 259 257 252 247 254 259 261 260 265 274 280 278 274 274 275 274 268 266 268 269 270 273 274 271 265 260 257 256 255 252 248 243 237 235 236 240 245 250 256 259 258 256 255 255 261 266 270 272 276 280 283 284 285 288 290 293 291 291 291 293 289 286 282 279 276 276 278 282 284 285 284 283 283 281 277 272 272 273 273 272 268 266 268
238 244 251 257 261 263 265 270 271 268 257 260 281 297 298 297 298 302 307 305 300 295 289 287 286 283 279 271 261 252 247 247 246 243 240 236 233 234 237 241 245 251 256 259 260 259 257 260 264 268 271 276 279 281 282 283 284 285 285 286 289 292 291 286 282 280 281 281 282 284 286 287 287 287 286 283 280 277 272 269 269 270 271 268 263 260
240 244 250 252 255 260 270 284 294 305 320 328 323 313 307 307 308 308 307 302 296 292 289 284 282 281 282 280 274 262 250 244 241 240 238 233 230 230 235 238 241 245 249 257 262 263 262 261 262 264 268 272 275 277 280 284 285 284 281 283 288 292 292 290 289 287 285 283 283 284 283 283 282 282 281 279 277 275 273 271 270 270 270 269 267 262
241 248 256 255 254 258 276 309 329 336 332 323 313 304 299 301 302 301 299 292 287 285 284 280 278 277 277 278 276 271 261 253 247 243 242 236 230 228 231 233 236 239 241 250 259 265 268 265 264 264 267 269 271 273 277 281 283 283 282 281 281 280 279 287 292 293 288 284 281 279 278 279 280 281 280 279 277 275 273 271 269 267 265 264 263 262
244 255 266 277 293 314 337 336 331 326 319 313 307 299 293 295 295 294 287 283 281 279 277 276 277 277 276 277 277 277 274 269 264 261 259 252 247 243 237 234 235 237 238 243 249 257 264 268 269 270 270 268 268 269 273 277 280 281 281 280 278 276 274 280 284 287 286 285 283 280 279 280 281 282 281 279 277 275 272 271 269 267 265 261 259 258
248 261 280 308 328 331 324 315 311 310 308 304 298 291 287 287 286 282 278 276 276 275 272 267 268 272 277 283 287 290 289 285 279 273 267 262 255 249 243 240 240 241 243 245 247 249 253 260 267 272 275 271 269 267 267 272 276 279 280 280 279 278 277 277 277 278 279 280 280 280 279 280 280 280 279 279 278 276 272 269 268 267 266 263 259 257
264 276 287 293 292 288 285 287 292 297 298 294 287 280 277 277 275 273 270 266 266 267 268 265 265 269 275 282 286 289 290 288 284 277 269 263 258 253 248 247 246 246 247 249 250 251 251 253 256 262 268 271 272 271 269 269 271 274 277 279 279 279 277 276 276 275 275 275 276 277 279 279 278 276 276 277 277 276 274 270 266 264 263 262 261 260
284 287 284 275 269 266 269 282 291 295 292 287 281 275 270 269 268 267 266 262 264 269 275 275 273 273 274 276 277 279 281 284 284 283 278 273 267 260 253 253 251 251 250 251 253 254 254 252 251 252 256 261 267 271 272 270 269 270 272 275 276 276 275 275 275 274 273 272 270 270 270 272 272 273 275 276 277 276 276 274 271 267 263 263 262 262
300 291 282 275 269 266 272 284 289 287 283 280 277 273 267 266 269 271 271 270 271 273 274 274 274 274 274 273 274 275 278 279 280 280 279 275 273 269 266 263 262 262 261 259 258 257 258 255 250 246 245 249 256 264 270 270 269 268 269 269 270 270 272 273 274 274 273 271 268 265 261 263 265 267 272 274 276 277 279 278 275 272 268 265 264 263
294 279 271 264 261 263 271 279 281 280 277 275 274 271 267 262 260 262 266 267 267 267 266 268 271 273 275 277 277 277 277 278 278 278 275 272 271 273 275 275 276 277 278 274 271 269 268 263 255 247 241 242 247 254 263 267 269 269 267 265 265 267 269 272 273 273 272 273 272 269 265 264 264 265 267 271 274 277 279 279 278 276 273 270 267 265
272 263 255 250 249 255 263 268 271 271 271 271 271 271 270 267 264 260 259 264 267 269 269 269 270 272 274 276 277 277 277 278 279 280 279 277 276 277 279 281 282 284 286 286 286 284 282 281 275 264 251 246 245 248 255 262 267 270 269 266 265 265 268 271 273 274 274 275 274 274 271 270 269 268 267 270 274 277 280 280 279 278 277 274 271 269